When you browse on this site, cookies collect data to enhance your experience and personalize the content and advertising you see.
Visit our Privacy Policy to learn more. By continuing to use the site, you agree to this use of cookies and data.
  • In Deutschland
  • Länderverzeichnis
  • Für 7 Tage
  • Wassertemperatur
  • Wetterkarte
  • Widgets
  • user-avatar
    Anmelden

    Stündliche Wetter Pabna

    Heute, 19 September, Donnerstag

    Zeit Temperatur Niederschläge Wind Luftdruck Luftfeuchtigkeit
    00:00 +30°C° 0 mm 1 m/S 755 mmHg 73%
    01:00 +30°C° 0 mm 1 m/S 755 mmHg 75%
    02:00 +30°C° 0 mm 1 m/S 754 mmHg 77%
    03:00 +29°C° 0 mm 1 m/S 754 mmHg 79%
    04:00 +29°C° 0 mm 1 m/S 754 mmHg 80%
    05:00 +29°C° 0 mm 1 m/S 754 mmHg 81%
    06:00 +29°C° 0 mm 1 m/S 755 mmHg 82%
    07:00 +30°C° 0 mm 1 m/S 755 mmHg 76%
    08:00 +32°C° 0 mm 1 m/S 755 mmHg 71%
    09:00 +33°C° 0 mm 1 m/S 756 mmHg 65%
    10:00 +34°C° 0 mm 1 m/S 755 mmHg 61%
    11:00 +35°C° 0 mm 1 m/S 755 mmHg 57%
    12:00 +36°C° 0 mm 1 m/S 755 mmHg 53%
    13:00 +36°C° 0.1 mm 1 m/S 754 mmHg 52%
    14:00 +36°C° 0.1 mm 1 m/S 753 mmHg 51%
    15:00 +36°C° 0.1 mm 1 m/S 752 mmHg 50%
    16:00 +35°C° 0 mm 1 m/S 752 mmHg 55%
    17:00 +35°C° 0 mm 2 m/S 752 mmHg 60%
    18:00 +34°C° 0 mm 2 m/S 752 mmHg 65%
    19:00 +34°C° 0 mm 2 m/S 752 mmHg 66%
    20:00 +32°C° 0 mm 2 m/S 753 mmHg 67%
    21:00 +32°C° 0 mm 2 m/S 754 mmHg 68%
    22:00 +31°C° 0 mm 2 m/S 754 mmHg 70%
    23:00 +31°C° 0 mm 2 m/S 754 mmHg 72%

    Morgen, 20 September, Freitag

    Zeit Temperatur Niederschläge Wind Luftdruck Luftfeuchtigkeit
    00:00 +30°C° 0 mm 2 m/S 754 mmHg 73%
    01:00 +30°C° 0 mm 2 m/S 754 mmHg 76%
    02:00 +29°C° 0 mm 2 m/S 753 mmHg 79%
    03:00 +29°C° 0 mm 2 m/S 753 mmHg 81%
    04:00 +29°C° 0 mm 2 m/S 753 mmHg 83%
    05:00 +28°C° 0 mm 2 m/S 754 mmHg 85%
    06:00 +28°C° 0 mm 2 m/S 754 mmHg 87%
    07:00 +30°C° 0.2 mm 2 m/S 754 mmHg 81%
    08:00 +31°C° 0.2 mm 2 m/S 755 mmHg 75%
    09:00 +32°C° 0.2 mm 2 m/S 755 mmHg 70%
    10:00 +34°C° 0.1 mm 2 m/S 755 mmHg 65%
    11:00 +35°C° 0.1 mm 1 m/S 754 mmHg 59%
    12:00 +36°C° 0.1 mm 1 m/S 754 mmHg 54%
    13:00 +36°C° 0.1 mm 1 m/S 753 mmHg 54%
    14:00 +36°C° 0.1 mm 1 m/S 752 mmHg 53%
    15:00 +36°C° 0.1 mm 1 m/S 751 mmHg 53%
    16:00 +35°C° 0 mm 1 m/S 751 mmHg 57%
    17:00 +34°C° 0 mm 1 m/S 751 mmHg 61%
    18:00 +33°C° 0 mm 1 m/S 751 mmHg 64%
    19:00 +33°C° 0 mm 1 m/S 751 mmHg 66%
    20:00 +32°C° 0 mm 1 m/S 752 mmHg 68%
    21:00 +31°C° 0 mm 1 m/S 753 mmHg 70%
    22:00 +31°C° 0 mm 1 m/S 753 mmHg 71%
    23:00 +31°C° 0 mm 1 m/S 753 mmHg 72%

    übermorgen, 21 September, Samstag

    Zeit Temperatur Niederschläge Wind Luftdruck Luftfeuchtigkeit
    00:00 +30°C° 0 mm 1 m/S 753 mmHg 73%
    01:00 +30°C° 0 mm 2 m/S 753 mmHg 74%
    02:00 +30°C° 0 mm 2 m/S 752 mmHg 75%
    03:00 +30°C° 0 mm 2 m/S 752 mmHg 76%
    04:00 +29°C° 0 mm 2 m/S 752 mmHg 78%
    05:00 +29°C° 0 mm 2 m/S 752 mmHg 80%
    06:00 +29°C° 0 mm 2 m/S 753 mmHg 82%
    07:00 +30°C° 0 mm 2 m/S 753 mmHg 78%
    08:00 +31°C° 0 mm 2 m/S 753 mmHg 73%
    09:00 +32°C° 0 mm 1 m/S 754 mmHg 69%
    10:00 +34°C° 0.1 mm 1 m/S 754 mmHg 64%
    11:00 +35°C° 0.1 mm 1 m/S 753 mmHg 59%
    12:00 +36°C° 0.1 mm 1 m/S 753 mmHg 54%
    13:00 +36°C° 0.1 mm 1 m/S 752 mmHg 54%
    14:00 +36°C° 0.1 mm 1 m/S 751 mmHg 53%
    15:00 +37°C° 0.1 mm 2 m/S 750 mmHg 52%
    16:00 +36°C° 0.2 mm 2 m/S 750 mmHg 57%
    17:00 +34°C° 0.2 mm 1 m/S 750 mmHg 62%
    18:00 +33°C° 0.2 mm 1 m/S 751 mmHg 66%
    19:00 +33°C° 0 mm 1 m/S 751 mmHg 67%
    20:00 +32°C° 0 mm 1 m/S 752 mmHg 68%
    21:00 +30°C° 0 mm 0 m/S 752 mmHg 69%
    22:00 +30°C° 0 mm 0 m/S 752 mmHg 70%
    23:00 +31°C° 0 mm 1 m/S 752 mmHg 71%

    22 September, Sonntag

    Zeit Temperatur Niederschläge Wind Luftdruck Luftfeuchtigkeit
    00:00 +31°C° 0 mm 1 m/S 753 mmHg 73%
    01:00 +31°C° 0 mm 1 m/S 752 mmHg 74%
    02:00 +30°C° 0 mm 1 m/S 752 mmHg 76%
    03:00 +30°C° 0 mm 1 m/S 752 mmHg 77%
    04:00 +30°C° 0.1 mm 1 m/S 752 mmHg 78%
    05:00 +29°C° 0.1 mm 1 m/S 753 mmHg 80%
    06:00 +29°C° 0.1 mm 1 m/S 753 mmHg 81%
    07:00 +31°C° 0.7 mm 1 m/S 753 mmHg 76%
    08:00 +32°C° 0.7 mm 1 m/S 754 mmHg 71%
    09:00 +33°C° 0.7 mm 1 m/S 754 mmHg 66%
    10:00 +34°C° 1.6 mm 1 m/S 754 mmHg 63%
    11:00 +34°C° 1.6 mm 1 m/S 754 mmHg 60%
    12:00 +36°C° 1.6 mm 2 m/S 754 mmHg 56%
    13:00 +36°C° 0.2 mm 2 m/S 753 mmHg 56%
    14:00 +35°C° 0.2 mm 1 m/S 752 mmHg 56%
    15:00 +35°C° 0.2 mm 1 m/S 752 mmHg 55%
    16:00 +35°C° 0.8 mm 2 m/S 752 mmHg 63%
    17:00 +34°C° 0.8 mm 2 m/S 752 mmHg 70%
    18:00 +31°C° 0.8 mm 3 m/S 752 mmHg 78%
    19:00 +31°C° 0 mm 3 m/S 753 mmHg 80%
    20:00 +30°C° 0 mm 3 m/S 753 mmHg 83%
    21:00 +30°C° 0 mm 3 m/S 754 mmHg 85%
    22:00 +29°C° 0.1 mm 3 m/S 754 mmHg 86%
    23:00 +29°C° 0.1 mm 3 m/S 754 mmHg 87%

    23 September, Montag

    Zeit Temperatur Niederschläge Wind Luftdruck Luftfeuchtigkeit
    00:00 +29°C° 0.1 mm 3 m/S 754 mmHg 88%
    01:00 +29°C° 0.1 mm 2 m/S 754 mmHg 88%
    02:00 +28°C° 0.1 mm 2 m/S 754 mmHg 89%
    03:00 +28°C° 0.1 mm 2 m/S 754 mmHg 89%
    04:00 +28°C° 0 mm 2 m/S 754 mmHg 89%
    05:00 +28°C° 0 mm 2 m/S 755 mmHg 89%
    06:00 +27°C° 0 mm 2 m/S 755 mmHg 89%
    07:00 +29°C° 0.1 mm 2 m/S 755 mmHg 83%
    08:00 +30°C° 0.1 mm 3 m/S 756 mmHg 77%
    09:00 +33°C° 0.1 mm 3 m/S 756 mmHg 71%
    10:00 +34°C° 1.2 mm 3 m/S 756 mmHg 67%
    11:00 +35°C° 1.2 mm 3 m/S 755 mmHg 62%
    12:00 +36°C° 1.2 mm 4 m/S 755 mmHg 58%
    13:00 +35°C° 0.8 mm 4 m/S 754 mmHg 60%
    14:00 +35°C° 0.8 mm 5 m/S 754 mmHg 62%
    15:00 +35°C° 0.8 mm 5 m/S 753 mmHg 63%
    16:00 +33°C° 0.9 mm 5 m/S 753 mmHg 68%
    17:00 +32°C° 0.9 mm 4 m/S 754 mmHg 74%
    18:00 +30°C° 0.9 mm 3 m/S 754 mmHg 79%
    19:00 +30°C° 0.6 mm 3 m/S 754 mmHg 81%
    20:00 +29°C° 0.6 mm 3 m/S 755 mmHg 83%
    21:00 +29°C° 0.6 mm 3 m/S 756 mmHg 85%
    22:00 +29°C° 0.7 mm 3 m/S 756 mmHg 86%
    23:00 +28°C° 0.7 mm 3 m/S 756 mmHg 87%

    24 September, Dienstag

    Zeit Temperatur Niederschläge Wind Luftdruck Luftfeuchtigkeit
    00:00 +28°C° 0.7 mm 3 m/S 756 mmHg 88%
    01:00 +28°C° 0.2 mm 2 m/S 756 mmHg 88%
    02:00 +28°C° 0.2 mm 2 m/S 755 mmHg 89%
    03:00 +28°C° 0.2 mm 2 m/S 755 mmHg 89%
    04:00 +28°C° 0.9 mm 2 m/S 755 mmHg 89%
    05:00 +28°C° 0.9 mm 2 m/S 755 mmHg 89%
    06:00 +28°C° 0.9 mm 2 m/S 756 mmHg 89%
    07:00 +28°C° 0.4 mm 2 m/S 756 mmHg 87%
    08:00 +29°C° 0.4 mm 2 m/S 756 mmHg 85%
    09:00 +29°C° 0.4 mm 2 m/S 757 mmHg 84%
    10:00 +30°C° 1.4 mm 3 m/S 757 mmHg 80%
    11:00 +32°C° 1.4 mm 4 m/S 756 mmHg 76%
    12:00 +33°C° 1.4 mm 4 m/S 756 mmHg 72%
    13:00 +33°C° 1.3 mm 4 m/S 755 mmHg 73%
    14:00 +33°C° 1.3 mm 4 m/S 755 mmHg 74%
    15:00 +32°C° 1.3 mm 4 m/S 754 mmHg 75%
    16:00 +30°C° 1.3 mm 4 m/S 754 mmHg 78%
    17:00 +29°C° 1.3 mm 4 m/S 755 mmHg 82%
    18:00 +28°C° 1.3 mm 4 m/S 755 mmHg 86%
    19:00 +28°C° 0 mm 4 m/S 756 mmHg 86%
    20:00 +28°C° 0 mm 4 m/S 756 mmHg 86%
    21:00 +28°C° 0 mm 4 m/S 757 mmHg 85%
    22:00 +27°C° 0 mm 4 m/S 757 mmHg 85%
    23:00 +27°C° 0 mm 4 m/S 757 mmHg 85%
    Mehr zeigen